GW6373 Weather Reports


time (UTC)temp
C
wind
direction
speed
KPH
gust
KPH
rain 1hr
cm
rain 24hr
cm
rain mn
cm
humidity
%
barometer
mb
20260507080028 12 226 4.8 9.7 0.00 0.00 0.00 39 1022.0
20260507074530 12 126 6.4 11.3 0.00 0.00 0.00 39 1021.9
20260507073025 12 185 6.4 11.3 0.00 0.00 0.00 39 1021.8
20260507071524 13 120 0.0 8.0 0.00 0.00 0.00 38 1021.5
20260507070028 13 136 6.4 9.7 0.00 0.00 0.00 37 1021.5
20260507064530 14 272 6.4 14.5 0.00 0.00 0.00 36 1021.4
20260507063030 14 285 6.4 16.1 0.00 0.00 0.00 35 1021.4
20260507061535 14 229 8.0 16.1 0.00 0.00 0.00 35 1021.2
20260507060035 15 252 9.7 16.1 0.00 0.00 0.00 35 1021.1
20260507054537 15 250 9.7 16.1 0.00 0.00 0.00 34 1021.0
20260507053031 15 229 8.0 17.7 0.00 0.00 0.00 34 1021.0
20260507051529 15 240 6.4 17.7 0.00 0.00 0.00 34 1021.0
20260507050049 15 226 9.7 16.1 0.00 0.00 0.00 34 1020.8
20260507044531 15 191 8.0 17.7 0.00 0.00 0.00 34 1020.7
20260507043010 15 205 11.3 19.3 0.00 0.00 0.00 33 1020.6
20260507041515 16 216 6.4 16.1 0.00 0.00 0.00 33 1020.4
20260507040024 16 270 11.3 19.3 0.00 0.00 0.00 32 1020.2
20260507034533 16 240 14.5 20.9 0.00 0.00 0.00 31 1020.0
20260507033031 16 235 9.7 22.5 0.00 0.00 0.00 31 1019.8
20260507031511 17 252 16.1 24.1 0.00 0.00 0.00 30 1019.6
20260507030018 17 299 14.5 27.4 0.00 0.00 0.00 30 1019.4
20260507024527 17 299 12.9 24.1 0.00 0.00 0.00 29 1019.0
20260507023027 18 283 16.1 30.6 0.00 0.00 0.00 28 1018.7
20260507021545 18 298 17.7 25.7 0.00 0.00 0.00 27 1018.3
20260507020022 19 257 1.6 19.3 0.00 0.00 0.00 26 1018.2
20260507014523 20 161 11.3 20.9 0.00 0.00 0.00 26 1018.2
20260507013023 20 90 19.3 29.0 0.00 0.00 0.00 26 1018.1
20260507011532 21 115 12.9 22.5 0.00 0.00 0.00 23 1018.1
20260507010040 22 335 4.8 20.9 0.00 0.00 0.00 21 1017.7
20260507004519 22 335 3.2 14.5 0.00 0.00 0.00 19 1017.7
20260507003022 22 304 4.8 24.1 0.00 0.00 0.00 20 1017.7
20260507001525 22 68 4.8 16.1 0.00 0.00 0.00 20 1017.8
20260507000033 22 234 3.2 17.7 0.00 0.00 0.00 21 1017.5
20260506234528 22 358 3.2 12.9 0.00 0.00 0.00 20 1017.4
20260506233018 22 267 8.0 19.3 0.00 0.00 0.00 19 1017.4
20260506231526 22 336 1.6 8.0 0.00 0.00 0.00 19 1017.5
20260506230026 21 302 6.4 19.3 0.00 0.00 0.00 20 1017.5
20260506224528 21 26 11.3 27.4 0.00 0.00 0.00 20 1017.7
20260506223028 21 143 1.6 14.5 0.00 0.00 0.00 20 1017.9
20260506221522 21 311 4.8 16.1 0.00 0.00 0.00 21 1018.3
20260506220030 21 250 8.0 14.5 0.00 0.00 0.00 21 1018.5
20260506214527 22 210 6.4 17.7 0.00 0.00 0.00 20 1018.8
20260506213030 21 356 11.3 22.5 0.00 0.00 0.00 21 1018.9
20260506211530 20 233 8.0 16.1 0.00 0.00 0.00 22 1019.1
20260506210030 20 136 6.4 19.3 0.00 0.00 0.00 22 1019.2
20260506204541 20 345 4.8 17.7 0.00 0.00 0.00 22 1019.3
20260506203029 20 342 17.7 27.4 0.00 0.00 0.00 22 1019.6
20260506201515 20 11 8.0 16.1 0.00 0.00 0.00 22 1019.8
20260506200023 20 274 6.4 17.7 0.00 0.00 0.00 23 1019.9
20260506194524 19 353 6.4 22.5 0.00 0.00 0.00 24 1019.9
20260506193027 18 355 8.0 22.5 0.00 0.00 0.00 24 1020.0
20260506191529 18 354 14.5 25.7 0.00 0.00 0.00 24 1020.1
20260506190013 18 332 8.0 16.1 0.00 0.00 0.00 23 1020.1
20260506184521 18 118 1.6 14.5 0.00 0.00 0.00 24 1020.3
20260506183022 17 237 6.4 12.9 0.00 0.00 0.00 24 1020.3
20260506181528 17 245 8.0 19.3 0.00 0.00 0.00 25 1020.4
20260506180028 17 348 3.2 16.1 0.00 0.00 0.00 26 1020.5
20260506174515 16 11 1.6 11.3 0.00 0.00 0.00 28 1020.6
20260506173022 16 309 8.0 24.1 0.00 0.00 0.00 28 1020.5
20260506171538 16 331 9.7 14.5 0.00 0.00 0.00 29 1020.4
20260506170027 15 323 1.6 9.7 0.00 0.00 0.00 31 1020.5
20260506164530 15 206 4.8 12.9 0.00 0.00 0.00 32 1020.3
20260506163020 15 346 3.2 11.3 0.00 0.00 0.00 30 1020.2
20260506161529 15 323 6.4 14.5 0.00 0.00 0.00 31 1020.1
20260506160040 14 338 8.0 14.5 0.00 0.00 0.00 32 1020.1
20260506154532 13 21 4.8 11.3 0.00 0.00 0.00 34 1019.9
20260506153030 13 26 0.0 6.4 0.00 0.00 0.00 37 1019.9
20260506151530 13 335 4.8 11.3 0.00 0.00 0.00 36 1020.1
20260506150031 13 53 0.0 3.2 0.00 0.00 0.00 38 1019.9
20260506144525 12 15 3.2 6.4 0.00 0.00 0.00 38 1019.9
20260506143041 12 307 0.0 1.6 0.00 0.00 0.00 40 1019.8
20260506141529 11 233 0.0 3.2 0.00 0.00 0.00 42 1019.8
20260506140032 9 123 1.6 4.8 0.00 0.00 0.00 47 1019.6
20260506134527 7 240 4.8 6.4 0.00 0.00 0.00 50 1019.5
20260506133028 7 243 4.8 8.0 0.00 0.00 0.00 51 1019.2
20260506131530 7 225 6.4 8.0 0.00 0.00 0.00 50 1019.2
20260506130020 7 234 1.6 4.8 0.00 0.00 0.00 53 1018.9
20260506124523 6 253 3.2 8.0 0.00 0.00 0.00 55 1018.8
20260506123026 5 240 6.4 11.3 0.00 0.00 0.00 56 1018.5
20260506121527 5 256 4.8 9.7 0.00 0.00 0.00 57 1018.4
20260506120014 5 219 1.6 8.0 0.00 0.00 0.00 56 1018.4
20260506114530 6 165 3.2 4.8 0.00 0.00 0.00 54 1018.4
20260506113023 7 244 8.0 11.3 0.00 0.00 0.00 52 1018.4
20260506111525 6 278 4.8 14.5 0.00 0.00 0.00 53 1018.3
20260506110034 6 210 8.0 16.1 0.00 0.00 0.00 54 1018.1
20260506104516 6 252 6.4 14.5 0.00 0.00 0.00 55 1018.1
20260506103020 6 204 4.8 11.3 0.00 0.00 0.00 54 1017.9
20260506101543 6 193 8.0 12.9 0.00 0.00 0.00 53 1017.9
20260506100007 7 222 4.8 12.9 0.00 0.00 0.00 52 1018.1
20260506094516 7 214 6.4 12.9 0.00 0.00 0.00 50 1018.0
20260506093019 7 240 9.7 14.5 0.00 0.00 0.00 51 1018.0
20260506091524 7 248 11.3 16.1 0.00 0.00 0.00 51 1017.8
20260506090025 7 256 9.7 14.5 0.00 0.00 0.00 50 1017.6
20260506084517 7 232 6.4 12.9 0.00 0.00 0.00 49 1017.5
20260506083015 7 205 6.4 11.3 0.00 0.00 0.00 49 1017.5
20260506081519 8 214 4.8 11.3 0.00 0.00 0.00 47 1017.7